User: anonymous
Location: Unspecified
(0.0000°N, 0.0000°E)
Time: 23:42:08
(UTC+02:00)
Language:

deb Ariane - Orbit

View from above orbital plane
View from above orbital plane
View from above satellite
View from above satellite

Ground track
Ground track

The orbit data is extracted from the following two-line orbital elements,

1 25668U 92060E   14203.11256510  .00188572 -35502-6  14814-2 0  5051
2 25668 007.4265 183.3920 5617627 325.0859 031.1885 04.75855167248575
Epoch (UTC): 22 July 2014 02:42:05
Eccentricity: 0.5617627
inclination: 7.4265°
perigee height: 165 km
apogee height: 16940 km
right ascension of ascending node: 183.3920°
argument of perigee: 325.0859°
revolutions per day: 4.75855167
mean anomaly at epoch: 31.1885°
orbit number at epoch: 24857

The dashed part of the orbit path shows where the satellite is in the earth's shadow,  

DLR